This is the latest recevied weather packets stored in our database for station/object SQ7KHZ-10. If no packets are shown the sender has not sent any weather packets the latest 10 day(s).
| Time | Temp. | Humidity | Pressure | Rain* | Wind** | Luminosity | Snow |
|---|---|---|---|---|---|---|---|
| 1777594813 | 7.78° C | 65% | 1026.7 hPa | 0 mm | - | - | - |
| 1777593613 | 7.78° C | 65% | 1026.8 hPa | 0 mm | - | - | - |
| 1777592412 | 7.22° C | 65% | 1026.9 hPa | 0 mm | - | - | - |
| 1777591212 | 7.78° C | 62% | 1027.2 hPa | 0 mm | - | - | - |
| 1777590012 | 8.33° C | 58% | 1027.1 hPa | 0 mm | - | - | - |
| 1777588812 | 7.78° C | 59% | 1027.2 hPa | 0 mm | - | - | - |
| 1777587600 | 8.33° C | 62% | 1027.1 hPa | 0 mm | - | - | - |
| 1777586400 | 7.78° C | 59% | 1027.1 hPa | 0 mm | - | - | - |
| 1777585200 | 7.78° C | 60% | 1027.1 hPa | 0 mm | - | - | - |
| 1777583999 | 7.22° C | 66% | 1027.2 hPa | 0 mm | - | - | - |
| 1777582799 | 7.78° C | 73% | 1027.3 hPa | 0 mm | - | - | - |
| 1777581587 | 7.78° C | 61% | 1027.4 hPa | 0 mm | - | - | - |
| 1777580387 | 7.78° C | 63% | 1027.5 hPa | 0 mm | - | - | - |
| 1777579177 | 8.33° C | 67% | 1027.7 hPa | 0 mm | - | - | - |
| 1777577963 | 8.33° C | 69% | 1027.6 hPa | 0 mm | - | - | - |
| 1777576751 | 8.89° C | 60% | 1027.6 hPa | 0 mm | - | - | - |
| 1777575540 | 8.89° C | 60% | 1027.7 hPa | 0 mm | - | - | - |
| 1777574339 | 8.89° C | 60% | 1027.6 hPa | 0 mm | - | - | - |
| 1777573128 | 8.89° C | 55% | 1027.5 hPa | 0 mm | - | - | - |
| 1777571916 | 9.44° C | 53% | 1027.4 hPa | 0 mm | - | - | - |
| 1777570716 | 10° C | 54% | 1027.3 hPa | 0 mm | - | - | - |
| 1777569504 | 10.56° C | 52% | 1027.3 hPa | 0 mm | - | - | - |
| 1777568290 | 11.11° C | 46% | 1027.3 hPa | 0 mm | - | - | - |
| 1777567087 | 11.67° C | 41% | 1027.1 hPa | 0 mm | - | - | - |
| 1777565882 | 11.67° C | 42% | 1027.3 hPa | 0 mm | - | - | - |
* Rain latest hour (hover to see other rain measurements)
** Current wind speed in m/s (hover to see current wind gust speed)